| time (UTC) | temp F | wind direction | speed MPH | gust MPH | rain 1hr in | rain 24hr in | rain mn in | humidity % | barometer mb |
| 20260503171531 | 72 | 5 | 0.0 | 4.0 | 0.00 | 0.00 | 0.00 | 49 | 1014.5 |
| 20260503170512 | 71 | 339 | 0.0 | 3.0 | 0.00 | 0.00 | 0.00 | 51 | 1014.5 |
| 20260503151011 | 62 | 47 | 1.0 | 3.0 | 0.00 | 0.00 | 0.00 | 70 | 1014.9 |
| 20260503150512 | 61 | 38 | 1.0 | 3.0 | 0.00 | 0.00 | 0.00 | 68 | 1015.1 |
| 20260503131008 | 47 | 0 | 0.0 | 0.0 | 0.00 | 0.00 | 0.00 | 93 | 1014.8 |
| 20260503130510 | 47 | 0 | 0.0 | 0.0 | 0.00 | 0.00 | 0.00 | 93 | 1014.7 |
| 20260503110510 | 50 | 0 | 0.0 | 2.0 | 0.00 | 0.00 | 0.00 | 91 | 1014.9 |
| 20260503090510 | 52 | 22 | 0.0 | 2.0 | 0.00 | 0.00 | 0.00 | 88 | 1014.7 |
| 20260503081534 | 54 | 0 | 0.0 | 1.0 | 0.00 | 0.00 | 0.00 | 86 | 1014.6 |
| 20260503081012 | 54 | 0 | 0.0 | 2.0 | 0.00 | 0.00 | 0.00 | 85 | 1014.6 |
| 20260503080517 | 54 | 0 | 0.0 | 2.0 | 0.00 | 0.00 | 0.00 | 85 | 1014.7 |
| 20260503072509 | 55 | 182 | 1.0 | 2.0 | 0.00 | 0.00 | 0.00 | 84 | 1014.4 |
| 20260503072012 | 55 | 0 | 0.0 | 0.0 | 0.00 | 0.00 | 0.00 | 83 | 1014.5 |
| 20260503071545 | 55 | 0 | 0.0 | 0.0 | 0.00 | 0.00 | 0.00 | 82 | 1014.6 |
| 20260503071017 | 55 | 0 | 0.0 | 0.0 | 0.00 | 0.00 | 0.00 | 82 | 1014.6 |
| 20260503070511 | 56 | 0 | 0.0 | 0.0 | 0.00 | 0.00 | 0.00 | 82 | 1014.5 |
| 20260503055012 | 59 | 0 | 0.0 | 0.0 | 0.00 | 0.00 | 0.00 | 74 | 1014.1 |
| 20260503054529 | 60 | 0 | 0.0 | 1.0 | 0.00 | 0.00 | 0.00 | 73 | 1014.1 |
| 20260503054010 | 60 | 0 | 0.0 | 2.0 | 0.00 | 0.00 | 0.00 | 73 | 1014.1 |
| 20260503053512 | 61 | 0 | 0.0 | 3.0 | 0.00 | 0.00 | 0.00 | 72 | 1014.0 |
| 20260503053036 | 61 | 182 | 1.0 | 4.0 | 0.00 | 0.00 | 0.00 | 72 | 1014.0 |
| 20260503052513 | 61 | 184 | 2.0 | 4.0 | 0.00 | 0.00 | 0.00 | 72 | 1014.0 |
| 20260503052012 | 62 | 178 | 1.0 | 3.0 | 0.00 | 0.00 | 0.00 | 71 | 1014.1 |
| 20260503051530 | 62 | 203 | 0.0 | 5.0 | 0.00 | 0.00 | 0.00 | 70 | 1014.1 |
| 20260503051011 | 62 | 186 | 2.0 | 5.0 | 0.00 | 0.00 | 0.00 | 70 | 1014.1 |
| 20260503050509 | 62 | 178 | 1.0 | 4.0 | 0.00 | 0.00 | 0.00 | 70 | 1014.2 |
| 20260503050028 | 62 | 178 | 1.0 | 5.0 | 0.00 | 0.00 | 0.00 | 70 | 1014.1 |
| 20260503045509 | 62 | 182 | 2.0 | 5.0 | 0.00 | 0.00 | 0.00 | 69 | 1014.0 |
| 20260503045013 | 63 | 205 | 1.0 | 4.0 | 0.00 | 0.00 | 0.00 | 69 | 1014.0 |
| 20260503044544 | 63 | 205 | 1.0 | 5.0 | 0.00 | 0.00 | 0.00 | 69 | 1014.0 |
| 20260503044012 | 63 | 221 | 2.0 | 7.0 | 0.00 | 0.00 | 0.00 | 70 | 1014.0 |
| 20260503043510 | 63 | 200 | 3.0 | 6.0 | 0.00 | 0.00 | 0.00 | 70 | 1013.9 |
| 20260503043040 | 64 | 211 | 2.0 | 5.0 | 0.00 | 0.00 | 0.00 | 69 | 1013.8 |
| 20260503042510 | 64 | 182 | 2.0 | 4.0 | 0.00 | 0.00 | 0.00 | 69 | 1013.8 |
| 20260503042011 | 64 | 171 | 1.0 | 4.0 | 0.00 | 0.00 | 0.00 | 69 | 1013.7 |
| 20260503041530 | 65 | 171 | 1.0 | 4.0 | 0.00 | 0.00 | 0.00 | 68 | 1013.8 |
| 20260503041011 | 65 | 171 | 1.0 | 4.0 | 0.00 | 0.00 | 0.00 | 67 | 1013.8 |
| 20260503040511 | 66 | 171 | 1.0 | 4.0 | 0.00 | 0.00 | 0.00 | 67 | 1013.8 |
| 20260503040033 | 66 | 171 | 1.0 | 4.0 | 0.00 | 0.00 | 0.00 | 66 | 1013.6 |
| 20260503035512 | 66 | 205 | 1.0 | 4.0 | 0.00 | 0.00 | 0.00 | 65 | 1013.6 |
| 20260503035012 | 67 | 185 | 1.0 | 4.0 | 0.00 | 0.00 | 0.00 | 64 | 1013.6 |
| 20260503034526 | 67 | 203 | 2.0 | 4.0 | 0.00 | 0.00 | 0.00 | 64 | 1013.5 |
| 20260503034012 | 68 | 198 | 1.0 | 5.0 | 0.00 | 0.00 | 0.00 | 63 | 1013.4 |
| 20260503033517 | 68 | 181 | 3.0 | 5.0 | 0.00 | 0.00 | 0.00 | 62 | 1013.4 |
| 20260503033027 | 69 | 186 | 2.0 | 5.0 | 0.00 | 0.00 | 0.00 | 61 | 1013.3 |
| 20260503032512 | 69 | 229 | 2.0 | 5.0 | 0.00 | 0.00 | 0.00 | 60 | 1013.3 |
| 20260503032016 | 70 | 213 | 2.0 | 6.0 | 0.00 | 0.00 | 0.00 | 59 | 1013.2 |
| 20260503031532 | 70 | 213 | 3.0 | 6.0 | 0.00 | 0.00 | 0.00 | 59 | 1013.3 |
| 20260503031010 | 71 | 199 | 3.0 | 6.0 | 0.00 | 0.00 | 0.00 | 58 | 1013.3 |
| 20260503030509 | 71 | 204 | 2.0 | 5.0 | 0.00 | 0.00 | 0.00 | 57 | 1013.4 |
| 20260503030029 | 71 | 185 | 2.0 | 6.0 | 0.00 | 0.00 | 0.00 | 56 | 1013.3 |
| 20260503025512 | 72 | 194 | 3.0 | 6.0 | 0.00 | 0.00 | 0.00 | 56 | 1013.2 |
| 20260503025012 | 72 | 199 | 3.0 | 6.0 | 0.00 | 0.00 | 0.00 | 56 | 1013.2 |
| 20260503024528 | 73 | 157 | 3.0 | 6.0 | 0.00 | 0.00 | 0.00 | 55 | 1013.1 |
| 20260503024016 | 73 | 165 | 3.0 | 8.0 | 0.00 | 0.00 | 0.00 | 54 | 1013.2 |
| 20260503023512 | 74 | 195 | 4.0 | 8.0 | 0.00 | 0.00 | 0.00 | 51 | 1013.2 |
| 20260503023027 | 74 | 181 | 4.0 | 9.0 | 0.00 | 0.00 | 0.00 | 47 | 1013.1 |
| 20260503022513 | 74 | 198 | 3.0 | 9.0 | 0.00 | 0.00 | 0.00 | 47 | 1013.1 |
| 20260503022015 | 74 | 211 | 1.0 | 8.0 | 0.00 | 0.00 | 0.00 | 48 | 1013.2 |
| 20260503021528 | 75 | 220 | 5.0 | 9.0 | 0.00 | 0.00 | 0.00 | 47 | 1013.3 |
| 20260503021010 | 75 | 207 | 3.0 | 9.0 | 0.00 | 0.00 | 0.00 | 47 | 1013.2 |
| 20260503020513 | 76 | 201 | 4.0 | 8.0 | 0.00 | 0.00 | 0.00 | 46 | 1013.3 |
| 20260503020028 | 76 | 206 | 2.0 | 6.0 | 0.00 | 0.00 | 0.00 | 46 | 1013.3 |
| 20260503015509 | 77 | 207 | 2.0 | 6.0 | 0.00 | 0.00 | 0.00 | 45 | 1013.3 |
| 20260503015014 | 78 | 171 | 3.0 | 5.0 | 0.00 | 0.00 | 0.00 | 44 | 1013.3 |
| 20260503014528 | 78 | 211 | 1.0 | 4.0 | 0.00 | 0.00 | 0.00 | 43 | 1013.4 |
| 20260503014010 | 78 | 0 | 0.0 | 4.0 | 0.00 | 0.00 | 0.00 | 43 | 1013.4 |
| 20260503013512 | 78 | 0 | 1.0 | 4.0 | 0.00 | 0.00 | 0.00 | 42 | 1013.4 |
| 20260503013029 | 78 | 202 | 1.0 | 5.0 | 0.00 | 0.00 | 0.00 | 41 | 1013.5 |
| 20260503012511 | 78 | 244 | 1.0 | 5.0 | 0.00 | 0.00 | 0.00 | 42 | 1013.5 |
| 20260503012012 | 78 | 207 | 2.0 | 4.0 | 0.00 | 0.00 | 0.00 | 42 | 1013.5 |
| 20260503011532 | 77 | 240 | 0.0 | 4.0 | 0.00 | 0.00 | 0.00 | 44 | 1013.6 |
| 20260503011010 | 77 | 0 | 1.0 | 4.0 | 0.00 | 0.00 | 0.00 | 43 | 1013.6 |
| 20260503010513 | 77 | 248 | 1.0 | 4.0 | 0.00 | 0.00 | 0.00 | 43 | 1013.6 |
| 20260503010035 | 77 | 252 | 2.0 | 4.0 | 0.00 | 0.00 | 0.00 | 44 | 1013.6 |
| 20260503005511 | 78 | 259 | 0.0 | 3.0 | 0.00 | 0.00 | 0.00 | 44 | 1013.6 |
| 20260503005011 | 78 | 246 | 1.0 | 5.0 | 0.00 | 0.00 | 0.00 | 46 | 1013.7 |
| 20260503004530 | 78 | 255 | 0.0 | 5.0 | 0.00 | 0.00 | 0.00 | 45 | 1013.7 |
| 20260503004017 | 78 | 242 | 2.0 | 4.0 | 0.00 | 0.00 | 0.00 | 46 | 1013.8 |
| 20260503003513 | 78 | 253 | 1.0 | 4.0 | 0.00 | 0.00 | 0.00 | 45 | 1013.8 |
| 20260503003029 | 78 | 0 | 0.0 | 4.0 | 0.00 | 0.00 | 0.00 | 46 | 1013.8 |
| 20260503002512 | 78 | 248 | 1.0 | 4.0 | 0.00 | 0.00 | 0.00 | 47 | 1013.9 |
| 20260503001529 | 78 | 0 | 1.0 | 5.0 | 0.00 | 0.00 | 0.00 | 44 | 1013.8 |
| 20260503001011 | 78 | 246 | 2.0 | 5.0 | 0.00 | 0.00 | 0.00 | 46 | 1013.8 |
| 20260503000512 | 78 | 230 | 0.0 | 8.0 | 0.00 | 0.00 | 0.00 | 47 | 1013.9 |
| 20260503000042 | 77 | 221 | 2.0 | 8.0 | 0.00 | 0.00 | 0.00 | 49 | 1013.9 |
| 20260502235509 | 77 | 243 | 1.0 | 6.0 | 0.00 | 0.00 | 0.00 | 48 | 1014.0 |
| 20260502235011 | 77 | 233 | 2.0 | 6.0 | 0.00 | 0.00 | 0.00 | 47 | 1014.0 |
| 20260502234526 | 77 | 0 | 0.0 | 7.0 | 0.00 | 0.00 | 0.00 | 49 | 1014.0 |
| 20260502234011 | 77 | 249 | 3.0 | 6.0 | 0.00 | 0.00 | 0.00 | 49 | 1014.1 |
| 20260502233512 | 77 | 248 | 1.0 | 7.0 | 0.00 | 0.00 | 0.00 | 50 | 1014.1 |
| 20260502233029 | 77 | 258 | 2.0 | 7.0 | 0.00 | 0.00 | 0.00 | 49 | 1014.1 |
| 20260502232509 | 76 | 242 | 2.0 | 7.0 | 0.00 | 0.00 | 0.00 | 49 | 1014.2 |
| 20260502232013 | 76 | 226 | 2.0 | 7.0 | 0.00 | 0.00 | 0.00 | 50 | 1014.2 |
| 20260502231533 | 76 | 250 | 3.0 | 6.0 | 0.00 | 0.00 | 0.00 | 49 | 1014.2 |
| 20260502231012 | 76 | 241 | 0.0 | 5.0 | 0.00 | 0.00 | 0.00 | 50 | 1014.3 |
| 20260502230510 | 76 | 259 | 1.0 | 7.0 | 0.00 | 0.00 | 0.00 | 49 | 1014.4 |
| 20260502230031 | 76 | 258 | 2.0 | 7.0 | 0.00 | 0.00 | 0.00 | 49 | 1014.4 |
| 20260502225515 | 76 | 249 | 2.0 | 7.0 | 0.00 | 0.00 | 0.00 | 48 | 1014.4 |
| 20260502225013 | 76 | 0 | 1.0 | 8.0 | 0.00 | 0.00 | 0.00 | 49 | 1014.5 |
| 20260502224529 | 76 | 227 | 2.0 | 8.0 | 0.00 | 0.00 | 0.00 | 48 | 1014.6 |
| 20260502224014 | 76 | 251 | 1.0 | 8.0 | 0.00 | 0.00 | 0.00 | 49 | 1014.6 |
| 20260502223510 | 75 | 259 | 4.0 | 8.0 | 0.00 | 0.00 | 0.00 | 48 | 1014.7 |
| 20260502223030 | 75 | 233 | 2.0 | 7.0 | 0.00 | 0.00 | 0.00 | 50 | 1014.8 |
| 20260502222513 | 76 | 248 | 2.0 | 7.0 | 0.00 | 0.00 | 0.00 | 49 | 1014.7 |
| 20260502222010 | 76 | 271 | 1.0 | 8.0 | 0.00 | 0.00 | 0.00 | 50 | 1014.8 |
| 20260502221528 | 76 | 251 | 3.0 | 8.0 | 0.00 | 0.00 | 0.00 | 51 | 1014.9 |
| 20260502221011 | 76 | 236 | 4.0 | 8.0 | 0.00 | 0.00 | 0.00 | 52 | 1015.0 |
| 20260502220512 | 76 | 255 | 2.0 | 8.0 | 0.00 | 0.00 | 0.00 | 52 | 1015.0 |
| 20260502220027 | 76 | 259 | 3.0 | 7.0 | 0.00 | 0.00 | 0.00 | 52 | 1015.0 |
| 20260502215513 | 76 | 243 | 3.0 | 7.0 | 0.00 | 0.00 | 0.00 | 53 | 1015.0 |
| 20260502215016 | 76 | 252 | 2.0 | 7.0 | 0.00 | 0.00 | 0.00 | 54 | 1015.0 |
| 20260502214529 | 75 | 248 | 0.0 | 8.0 | 0.00 | 0.00 | 0.00 | 54 | 1015.2 |
| 20260502214015 | 75 | 248 | 4.0 | 8.0 | 0.00 | 0.00 | 0.00 | 54 | 1015.2 |
| 20260502213511 | 76 | 223 | 3.0 | 8.0 | 0.00 | 0.00 | 0.00 | 53 | 1015.3 |
| 20260502213035 | 76 | 263 | 1.0 | 5.0 | 0.00 | 0.00 | 0.00 | 55 | 1015.5 |
| 20260502212512 | 75 | 237 | 1.0 | 7.0 | 0.00 | 0.00 | 0.00 | 57 | 1015.6 |
| 20260502212011 | 76 | 251 | 1.0 | 7.0 | 0.00 | 0.00 | 0.00 | 55 | 1015.7 |
| 20260502211535 | 76 | 243 | 1.0 | 7.0 | 0.00 | 0.00 | 0.00 | 56 | 1015.7 |
| 20260502211011 | 75 | 0 | 1.0 | 7.0 | 0.00 | 0.00 | 0.00 | 57 | 1015.7 |
| 20260502210512 | 75 | 246 | 1.0 | 5.0 | 0.00 | 0.00 | 0.00 | 57 | 1015.8 |
| 20260502210028 | 75 | 259 | 1.0 | 7.0 | 0.00 | 0.00 | 0.00 | 55 | 1015.8 |
| 20260502205510 | 75 | 277 | 1.0 | 7.0 | 0.00 | 0.00 | 0.00 | 55 | 1015.9 |
| 20260502205015 | 75 | 271 | 3.0 | 7.0 | 0.00 | 0.00 | 0.00 | 55 | 1015.9 |
| 20260502204528 | 75 | 252 | 1.0 | 8.0 | 0.00 | 0.00 | 0.00 | 56 | 1015.9 |
| 20260502204009 | 76 | 0 | 2.0 | 8.0 | 0.00 | 0.00 | 0.00 | 56 | 1016.0 |
| 20260502203513 | 76 | 243 | 2.0 | 8.0 | 0.00 | 0.00 | 0.00 | 54 | 1016.0 |
| 20260502203028 | 76 | 238 | 2.0 | 8.0 | 0.00 | 0.00 | 0.00 | 55 | 1016.1 |
| 20260502202512 | 76 | 242 | 2.0 | 5.0 | 0.00 | 0.00 | 0.00 | 50 | 1016.2 |
| 20260502202011 | 76 | 214 | 1.0 | 5.0 | 0.00 | 0.00 | 0.00 | 47 | 1016.2 |
| 20260502201530 | 76 | 192 | 1.0 | 5.0 | 0.00 | 0.00 | 0.00 | 51 | 1016.3 |
| 20260502201009 | 75 | 229 | 2.0 | 5.0 | 0.00 | 0.00 | 0.00 | 53 | 1016.3 |
| 20260502200512 | 75 | 0 | 1.0 | 8.0 | 0.00 | 0.00 | 0.00 | 49 | 1016.3 |
| 20260502200031 | 75 | 0 | 2.0 | 8.0 | 0.00 | 0.00 | 0.00 | 53 | 1016.4 |
| 20260502195513 | 75 | 355 | 2.0 | 7.0 | 0.00 | 0.00 | 0.00 | 52 | 1016.4 |
| 20260502195013 | 75 | 261 | 2.0 | 6.0 | 0.00 | 0.00 | 0.00 | 52 | 1016.5 |
| 20260502194527 | 75 | 244 | 2.0 | 6.0 | 0.00 | 0.00 | 0.00 | 51 | 1016.4 |
| 20260502194009 | 75 | 254 | 3.0 | 6.0 | 0.00 | 0.00 | 0.00 | 52 | 1016.4 |
| 20260502193509 | 75 | 243 | 1.0 | 5.0 | 0.00 | 0.00 | 0.00 | 51 | 1016.3 |
| 20260502193026 | 74 | 278 | 2.0 | 6.0 | 0.00 | 0.00 | 0.00 | 55 | 1016.4 |
| 20260502192513 | 74 | 329 | 2.0 | 6.0 | 0.00 | 0.00 | 0.00 | 52 | 1016.4 |
| 20260502192013 | 74 | 304 | 1.0 | 5.0 | 0.00 | 0.00 | 0.00 | 56 | 1016.4 |
| 20260502191528 | 73 | 350 | 2.0 | 9.0 | 0.00 | 0.00 | 0.00 | 51 | 1016.5 |
| 20260502191011 | 73 | 21 | 4.0 | 9.0 | 0.00 | 0.00 | 0.00 | 51 | 1016.6 |
| 20260502190513 | 73 | 297 | 2.0 | 5.0 | 0.00 | 0.00 | 0.00 | 55 | 1016.6 |
| 20260502190040 | 73 | 348 | 1.0 | 8.0 | 0.00 | 0.00 | 0.00 | 52 | 1016.5 |
| 20260502185512 | 73 | 30 | 2.0 | 8.0 | 0.00 | 0.00 | 0.00 | 52 | 1016.6 |
| 20260502185012 | 72 | 0 | 2.0 | 5.0 | 0.00 | 0.00 | 0.00 | 59 | 1016.7 |
| 20260502184528 | 72 | 341 | 2.0 | 7.0 | 0.00 | 0.00 | 0.00 | 53 | 1016.7 |
| 20260502184011 | 72 | 325 | 2.0 | 7.0 | 0.00 | 0.00 | 0.00 | 56 | 1016.8 |
| 20260502183513 | 71 | 347 | 2.0 | 7.0 | 0.00 | 0.00 | 0.00 | 54 | 1016.8 |
| 20260502183027 | 71 | 313 | 3.0 | 6.0 | 0.00 | 0.00 | 0.00 | 54 | 1016.9 |
| 20260502182512 | 70 | 312 | 1.0 | 8.0 | 0.00 | 0.00 | 0.00 | 55 | 1017.1 |
| 20260502182010 | 70 | 5 | 3.0 | 8.0 | 0.00 | 0.00 | 0.00 | 55 | 1017.1 |
| 20260502181529 | 70 | 338 | 2.0 | 6.0 | 0.00 | 0.00 | 0.00 | 56 | 1017.1 |
| 20260502181011 | 69 | 360 | 3.0 | 6.0 | 0.00 | 0.00 | 0.00 | 56 | 1017.2 |
| 20260502180512 | 69 | 360 | 2.0 | 7.0 | 0.00 | 0.00 | 0.00 | 56 | 1017.3 |